Weather reports worldwide

Advertisment
Romorantin, France (7247): temperature & dewpoint: 08.11.2018 13:00:00 - 14.11.2018 13:00:00 (CET)Romorantin, France (7247): temperature 5cm: 08.11.2018 13:00:00 - 14.11.2018 13:00:00 (CET)Romorantin, France (7247): temperature -20cm & temperature -100cm: 08.11.2018 13:00:00 - 14.11.2018 13:00:00 (CET)Romorantin, France (7247): wind speed & gusts: 08.11.2018 13:00:00 - 14.11.2018 13:00:00 (CET)Romorantin, France (7247): wind direction: 08.11.2018 13:00:00 - 14.11.2018 13:00:00 (CET)Romorantin, France (7247): reduced air pressure: 08.11.2018 13:00:00 - 14.11.2018 13:00:00 (CET)Romorantin, France (7247): visibility: 08.11.2018 13:00:00 - 14.11.2018 13:00:00 (CET)Romorantin, France (7247): precipitation: 08.11.2018 13:00:00 - 14.11.2018 13:00:00 (CET)
Date & Time tt [°C] td [°C] tt 5cm [°C] tt -20cm [°C] tt -100cm [°C] ff [km/h] ff [kn] fx [km/h] fx [kn] dd ppp [hPa] vv [km] rr [mm]
14.11.2018 13:00:00 9,6 8,4 10,2 11,0 14,2 12 6 17 9 ESE 1024,9 0,9 0,0
14.11.2018 12:00:00 9,7 8,5 10,0 11,0 14,2 11 6 17 9 ESE 1025,4 2,9 0,0
14.11.2018 11:00:00 8,9 7,7 8,5 11,0 14,1 8 5 16 8 SE 1026,0 1,8 0,0
14.11.2018 10:00:00 8,0 6,8 7,7 11,1 14,2 10 5 17 9 SE 1026,2 1,3 0,0
14.11.2018 09:00:00 7,3 6,1 6,9 11,1 14,2 9 5 14 8 ESE 1026,2 0,6 0,0
14.11.2018 08:00:00 6,8 5,6 5,4 11,1 14,1 7 4 11 6 SE 1026,3 0,4 0,0
14.11.2018 07:00:00 5,2 4,0 5,0 11,3 14,2 4 2 9 5 ENE 1026,4 0,2 0,0
14.11.2018 06:00:00 5,0 3,8 1,5 11,4 14,1 8 4 11 6 ENE 1026,8 0,2 0,0
14.11.2018 05:00:00 2,6 1,4 -1,1 11,6 14,2 3 1 7 4 NE 1027,2 13 0,0
14.11.2018 04:00:00 1,5 0,3 -0,2 11,7 14,2 0 0 7 4 N 1027,6 0,2 0,0
14.11.2018 03:00:00 2,8 1,6 -1,2 11,8 14,2 4 2 6 3 NNE 1028,2 11 0,0
14.11.2018 02:00:00 1,3 0,0 -1,4 11,9 14,2 3 2 6 4 NE 1028,7 0,4 0,0
14.11.2018 01:00:00 1,1 -0,2 -1,4 12,1 14,2 0 0 3 2 N 1029,1 0,8 0,0
14.11.2018 00:00:00 1,6 0,1 -0,4 12,3 14,2 0 0 4 2 N 1029,5 0,8 0,0
13.11.2018 23:00:00 1,5 0,0 -0,8 12,4 14,2 0 0 2 1 N 1029,7 0,6 0,0
13.11.2018 22:00:00 2,9 1,4 -0,1 12,5 14,2 0 0 4 2 N 1030,4 2,8 0,0
13.11.2018 21:00:00 3,7 2,1 0,8 12,6 14,2 2 1 4 2 NNW 1030,2 2,0 0,0
13.11.2018 20:00:00 4,1 2,3 1,4 12,6 14,2 0 0 3 2 N 1030,3 0,2 0,0
13.11.2018 19:00:00 5,7 3,7 3,1 12,6 14,1 0 0 4 2 N 1030,1 0,2 0,0
13.11.2018 18:00:00 8,2 5,8 5,0 12,6 14,2 0 0 4 2 N 1029,9 1,4 0,0
13.11.2018 17:00:00 12,4 7,7 11,2 12,6 14,2 0 0 9 5 N 1029,5 20 0,0
13.11.2018 16:00:00 15,0 6,5 17,8 12,4 14,2 10 5 16 9 SSW 1029,0 20 0,0
13.11.2018 15:00:00 16,0 7,2 15,1 12,4 14,2 7 4 15 8 W 1028,9 20 0,0
13.11.2018 14:00:00 14,7 7,5 15,5 12,2 14,1 7 4 16 9 WNW 1029,1 20 0,0
13.11.2018 13:00:00 13,5 7,5 14,3 12,2 14,2 6 4 16 8 WSW 1029,5 20 0,0
13.11.2018 12:00:00 13,7 8,9 13,4 12,2 14,2 10 5 16 9 WSW 1029,7 20 0,0
13.11.2018 11:00:00 12,9 8,6 12,0 12,2 14,2 11 6 21 12 W 1029,5 20 0,0
13.11.2018 10:00:00 11,1 8,7 10,1 12,2 14,2 10 6 20 11 SSW 1028,7 20 0,0
13.11.2018 09:00:00 9,7 8,3 5,0 12,2 14,2 5 3 11 6 S 1028,1 20 0,0
13.11.2018 08:00:00 8,8 7,2 5,1 12,3 14,2 5 3 13 7 SSW 1027,3 13 0,0
13.11.2018 07:00:00 10,5 8,8 10,3 12,3 14,1 5 3 11 6 SSW 1026,4 20 0,0
13.11.2018 06:00:00 10,5 8,8 9,8 12,3 14,2 4 2 10 5 SSW 1025,8 20 0,0
13.11.2018 05:00:00 10,0 8,6 7,9 12,3 14,2 3 1 8 4 SW 1024,9 19 0,0
13.11.2018 04:00:00 9,6 8,2 8,7 12,4 14,2 6 3 10 5 S 1024,2 16 0,0
13.11.2018 03:00:00 10,1 8,7 9,1 12,4 14,2 5 3 10 5 SSW 1023,8 20 0,0
13.11.2018 02:00:00 10,1 8,5 9,4 12,4 14,1 5 3 11 6 S 1022,8 14 0,0
13.11.2018 01:00:00 10,1 8,5 9,5 12,5 14,2 8 4 10 5 SSW 1022,6 13 0,0
13.11.2018 00:00:00 10,3 8,7 9,8 12,5 14,2 5 3 12 7 S 1021,7 17 0,0
12.11.2018 23:00:00 10,2 8,6 9,5 12,5 14,2 5 3 10 6 S 1021,4 20 0,2
12.11.2018 22:00:00 10,3 8,7 9,9 12,5 14,2 2 1 14 7 SSW 1020,4 20 0,2
12.11.2018 21:00:00 10,4 9,0 9,5 12,5 14,1 10 6 17 9 S 1020,4 16 0,2
12.11.2018 20:00:00 10,3 8,7 9,3 12,5 14,2 3 2 9 5 S 1019,7 8 0,0
12.11.2018 19:00:00 10,3 8,6 9,4 12,5 14,1 3 2 6 4 SSE 1019,1 5 0,6
12.11.2018 18:00:00 11,1 9,4 10,8 12,5 14,1 3 1 8 4 WNW 1018,6 10 0,6
12.11.2018 17:00:00 11,3 9,4 11,1 12,5 14,1 2 1 6 3 SW 1018,0 17 0,6
12.11.2018 16:00:00 11,4 9,3 11,3 12,5 14,2 3 2 7 4 SSE 1017,3 17 0,8
12.11.2018 15:00:00 11,6 9,2 11,7 12,5 14,1 3 1 7 4 S 1017,1 15 0,2
12.11.2018 14:00:00 11,7 9,4 11,9 12,5 14,2 6 4 10 5 WSW 1017,1 20 0,0
12.11.2018 13:00:00 11,7 9,1 12,2 12,4 14,1 4 2 7 4 WSW 1016,5 20 0,2
12.11.2018 12:00:00 11,3 9,2 11,3 12,4 14,1 5 3 8 4 SW 1016,5 13 1,4
12.11.2018 11:00:00 10,9 8,6 10,8 12,4 14,1 3 2 14 8 NNW 1015,5 16 1,0
12.11.2018 10:00:00 10,8 8,9 10,7 12,4 14,1 3 1 11 6 W 1014,6 17 0,8
12.11.2018 09:00:00 10,9 8,6 10,8 12,5 14,1 6 3 16 8 WNW 1013,6 20 0,0
12.11.2018 08:00:00 11,0 9,1 10,9 12,5 14,1 4 2 10 5 W 1012,3 20 0,0
12.11.2018 07:00:00 11,1 9,4 11,1 12,5 14,1 0 0 6 3 N 1011,1 20 0,0
12.11.2018 06:00:00 11,3 9,6 11,1 12,5 14,1 3 2 10 6 NW 1010,4 20 0,0
12.11.2018 05:00:00 11,3 9,6 10,4 12,5 14,1 4 2 5 3 NE 1010,2 20 0,0
12.11.2018 04:00:00 11,5 9,7 10,3 12,5 14,1 0 0 6 3 N 1010,1 18 0,0
12.11.2018 03:00:00 11,3 9,6 10,1 12,6 14,1 2 1 6 3 NNW 1010,2 2,8 0,0
12.11.2018 02:00:00 11,7 9,8 11,2 12,6 14,1 3 2 10 6 NW 1010,3 9 0,2
12.11.2018 01:00:00 11,7 9,4 11,5 12,6 14,1 0 0 9 5 N 1011,0 17 2,0
12.11.2018 00:00:00 12,2 10,1 11,9 12,6 14,1 4 2 11 6 WNW 1011,3 5 9,1
11.11.2018 23:00:00 12,5 9,7 11,6 12,6 14,1 0 0 6 3 N 1010,8 7 1,0
11.11.2018 22:00:00 12,8 9,1 12,0 12,6 14,2 3 2 13 7 ENE 1010,4 20 0,0
11.11.2018 21:00:00 12,9 9,3 11,7 12,5 14,1 9 5 14 8 SE 1010,5 20 0,0
11.11.2018 20:00:00 12,9 9,3 12,0 12,5 14,1 0 0 7 4 N 1010,5 20 0,0
11.11.2018 19:00:00 13,1 9,3 12,5 12,5 14,1 4 2 14 8 SSE 1010,4 20 0,0
11.11.2018 18:00:00 14,2 9,6 13,2 12,4 14,1 9 5 36 19 WNW 1010,1 20 0,0
11.11.2018 17:00:00 17,9 8,7 17,2 12,3 14,1 16 9 39 21 SW 1008,4 20 0,0
11.11.2018 16:00:00 18,8 8,7 18,5 12,2 14,1 25 14 45 24 SW 1007,8 20 0,0
11.11.2018 15:00:00 18,5 8,7 18,2 12,1 14,1 21 12 37 20 SW 1007,3 20 0,0
11.11.2018 14:00:00 18,8 8,7 18,0 12,0 14,2 22 12 44 24 SSW 1007,2 20 0,0
11.11.2018 13:00:00 17,7 8,5 18,1 11,9 14,1 28 15 45 24 SSW 1007,6 20 0,0
11.11.2018 12:00:00 17,6 8,2 16,4 11,8 14,1 19 10 37 20 SSW 1008,0 20 0,0
11.11.2018 11:00:00 15,0 8,0 14,9 11,8 14,1 18 10 31 17 S 1008,3 20 0,0
11.11.2018 10:00:00 13,9 7,2 12,6 11,8 14,1 19 10 29 16 S 1007,8 20 0,0
11.11.2018 09:00:00 13,0 7,4 9,3 11,8 14,1 13 7 24 13 S 1007,5 20 0,0
11.11.2018 08:00:00 11,5 6,6 9,7 11,8 14,1 10 6 33 18 S 1007,0 20 0,0
11.11.2018 07:00:00 12,9 6,7 11,9 11,8 14,1 16 9 36 19 S 1006,8 20 0,0
11.11.2018 06:00:00 12,8 6,8 11,4 11,8 14,1 18 10 37 20 S 1006,3 20 0,0
11.11.2018 05:00:00 12,5 7,2 11,4 11,8 14,2 22 12 39 21 S 1005,9 20 0,0
11.11.2018 04:00:00 12,2 7,5 10,9 11,8 14,1 20 11 36 20 S 1005,9 20 0,0
11.11.2018 03:00:00 11,9 7,6 9,8 11,8 14,1 21 11 31 17 S 1005,9 20 0,0
11.11.2018 02:00:00 11,7 7,6 10,1 11,8 14,1 21 12 44 24 S 1005,6 20 0,2
11.11.2018 01:00:00 11,9 7,4 10,8 11,8 14,1 22 12 39 21 S 1005,4 20 0,0
11.11.2018 00:00:00 12,2 7,3 10,2 11,8 14,1 26 14 44 24 S 1005,7 20 0,0
10.11.2018 23:00:00 11,6 7,3 10,5 11,8 14,1 18 10 35 19 S 1005,7 20 0,0
10.11.2018 22:00:00 11,9 7,6 10,9 11,8 14,1 22 12 35 19 S 1005,5 20 0,0
10.11.2018 21:00:00 11,5 7,4 10,0 11,9 14,2 19 10 31 17 S 1005,0 20 0,0
10.11.2018 20:00:00 11,4 7,5 10,0 11,9 14,2 16 9 31 17 S 1005,0 20 0,0
10.11.2018 19:00:00 11,9 8,0 10,1 11,8 14,2 17 9 36 19 S 1004,6 20 0,0
10.11.2018 18:00:00 11,7 7,8 10,0 11,8 14,1 16 9 29 16 S 1004,0 20 0,0
10.11.2018 17:00:00 12,7 8,2 11,4 11,7 14,1 16 9 39 21 S 1004,0 20 0,0
10.11.2018 16:00:00 13,1 9,0 11,9 11,7 14,2 24 13 41 22 S 1003,7 20 0,2
10.11.2018 15:00:00 12,9 9,3 12,0 11,7 14,2 21 11 40 22 SSW 1003,6 17 0,6
10.11.2018 14:00:00 13,7 8,9 12,7 11,6 14,1 24 13 37 20 SSW 1003,6 20 0,0
10.11.2018 13:00:00 13,4 9,4 12,1 11,5 14,1 21 11 39 21 SSW 1003,6 20 0,2
10.11.2018 12:00:00 13,4 8,9 12,6 11,5 14,2 24 13 45 24 S 1003,7 20 0,0
10.11.2018 11:00:00 12,8 9,1 11,4 11,5 14,2 21 11 36 20 S 1004,2 20 0,0
10.11.2018 10:00:00 11,9 8,6 10,7 11,5 14,2 21 12 39 21 S 1004,3 20 0,2
10.11.2018 09:00:00 11,7 8,2 10,5 11,4 14,2 22 12 37 20 S 1003,9 18 0,2
10.11.2018 08:00:00 11,5 8,0 10,4 11,4 14,2 26 14 46 25 S 1003,5 20 0,2
10.11.2018 07:00:00 11,5 7,2 10,4 11,4 14,2 23 13 46 25 S 1004,1 20 0,0
10.11.2018 06:00:00 11,4 7,3 10,2 11,4 14,2 27 15 48 26 S 1004,4 20 0,0
10.11.2018 05:00:00 11,5 7,2 10,1 11,4 14,2 29 16 50 27 SSW 1004,7 20 0,0
10.11.2018 04:00:00 11,2 7,3 9,9 11,4 14,2 23 13 48 26 SSW 1005,3 20 0,2
10.11.2018 03:00:00 11,0 7,5 9,9 11,4 14,2 21 11 50 27 S 1004,6 20 0,6
10.11.2018 02:00:00 11,9 7,2 10,1 11,4 14,2 26 14 42 23 SSW 1005,0 10 0,2
10.11.2018 01:00:00 11,4 7,1 10,0 11,4 14,2 15 8 29 16 S 1005,3 20 0,0
10.11.2018 00:00:00 11,5 6,6 10,9 11,4 14,2 16 9 32 18 SSE 1006,2 20 0,0
09.11.2018 23:00:00 11,6 6,7 10,9 11,4 14,2 16 9 29 16 SSE 1007,2 20 0,0
09.11.2018 22:00:00 11,5 6,6 10,0 11,4 14,2 20 11 30 16 S 1008,0 20 0,0
09.11.2018 21:00:00 11,1 6,4 9,8 11,4 14,2 16 9 29 16 S 1008,7 20 0,0
09.11.2018 20:00:00 11,0 6,5 7,7 11,4 14,2 13 7 22 12 SSE 1009,4 20 0,0
09.11.2018 19:00:00 9,4 7,0 5,5 11,4 14,2 10 5 15 8 SSE 1010,2 20 0,0
09.11.2018 18:00:00 10,0 6,9 6,6 11,3 14,2 4 2 11 6 SSE 1010,1 20 0,0
09.11.2018 17:00:00 12,8 7,7 11,5 11,2 14,2 9 5 22 12 S 1010,5 20 0,0
09.11.2018 16:00:00 14,7 8,2 15,4 11,1 14,2 12 6 29 16 SSW 1011,0 20 0,0
09.11.2018 15:00:00 15,4 8,4 15,3 11,0 14,3 16 9 27 14 SW 1011,8 20 0,0
09.11.2018 14:00:00 14,3 7,8 13,8 10,8 14,3 14 8 21 11 SW 1012,3 20 0,0
09.11.2018 13:00:00 13,9 8,1 14,4 10,7 14,2 11 6 16 8 SW 1012,7 20 0,0
09.11.2018 12:00:00 12,8 7,7 14,2 10,7 14,3 10 5 17 9 SW 1013,2 20 0,0
09.11.2018 11:00:00 13,0 7,2 14,4 10,6 14,2 9 5 18 10 S 1013,7 20 0,0
09.11.2018 10:00:00 10,5 6,3 9,5 10,7 14,3 8 4 14 8 S 1013,9 20 0,0
09.11.2018 09:00:00 6,0 4,5 1,8 10,8 14,3 0 0 4 2 N 1013,8 19 0,0
09.11.2018 08:00:00 2,4 1,1 -0,2 10,8 14,3 0 0 3 1 N 1013,6 13 0,0
09.11.2018 07:00:00 2,3 0,7 -0,2 10,9 14,3 0 0 4 2 N 1013,3 0,6 0,0
09.11.2018 06:00:00 4,8 3,0 1,1 11,0 14,3 0 0 8 4 N 1013,0 16 0,0
09.11.2018 05:00:00 6,1 4,1 2,6 11,1 14,3 5 3 9 5 E 1012,6 20 0,0
09.11.2018 04:00:00 6,2 4,2 2,7 11,1 14,3 4 2 9 5 E 1012,7 20 0,0
09.11.2018 03:00:00 6,4 4,4 3,6 11,2 14,3 5 3 9 5 E 1012,5 20 0,0
09.11.2018 02:00:00 7,0 4,5 4,8 11,2 14,3 5 3 10 5 E 1012,8 20 0,0
09.11.2018 01:00:00 7,8 4,9 6,7 11,3 14,3 5 3 13 7 ESE 1013,0 20 0,0
09.11.2018 00:00:00 8,6 5,3 7,3 11,3 14,3 7 4 14 8 ESE 1013,2 20 0,0
08.11.2018 23:00:00 8,7 4,9 7,4 11,3 14,3 6 3 18 10 ESE 1013,5 20 0,0
08.11.2018 22:00:00 9,7 5,3 8,1 11,3 14,3 9 5 23 12 SE 1013,6 20 0,0
08.11.2018 21:00:00 9,4 5,2 8,1 11,3 14,3 13 7 22 12 ESE 1013,8 20 0,0
08.11.2018 20:00:00 10,3 5,7 8,2 11,3 14,3 12 6 20 11 ESE 1014,0 20 0,0
08.11.2018 19:00:00 9,8 5,6 8,3 11,3 14,3 7 4 19 10 ENE 1014,2 20 0,0
08.11.2018 18:00:00 10,5 5,9 9,7 11,2 14,3 10 5 17 9 E 1014,4 20 0,0
08.11.2018 17:00:00 11,1 5,8 10,7 11,1 14,3 11 6 17 9 E 1015,1 20 0,0
08.11.2018 16:00:00 12,0 5,6 12,0 11,0 14,3 13 7 22 12 E 1015,8 20 0,0
08.11.2018 15:00:00 12,5 5,9 13,0 10,9 14,3 15 8 24 13 ESE 1016,4 20 0,0
08.11.2018 14:00:00 12,7 5,6 13,8 10,9 14,3 17 9 25 13 ESE 1017,2 20 0,0
08.11.2018 13:00:00 13,4 5,3 15,0 10,8 14,3 16 9 29 16 SE 1018,2 20 0,0

tt = temperature
td = dewpoint
tt 5cm = temperature 5cm
tt -20cm = temperature -20cm
tt -100cm = temperature -100cm
ff = wind speed
fx = gusts
dd = wind direction
ppp = reduced air pressure
vv = visibility
rr = precipitation

Next stations